Weather History for West Palm Beach, FL

Change the Weather History Date:

Thursday, January 8, 2015

  Actual Average Record
Temperature  
Mean Temperature 64 °F 66 °F  
Max Temperature 72 °F 74 °F 87 °F (1990)
Min Temperature 56 °F 57 °F 34 °F (1970)
Degree Days  
Heating Degree Days 1 3  
Month to date heating degree days 1 24  
Since 1 July heating degree days 43 95  
Cooling Degree Days 0 3  
Month to date cooling degree days 77 31  
Year to date cooling degree days 77 31  
Growing Degree Days 14 (Base 50)    
Moisture  
Dew Point 50 °F    
Average Humidity 63    
Maximum Humidity 77    
Minimum Humidity 48    
Precipitation  
Precipitation T in 0.11 in 2.41 in (1986)
Month to date precipitation 0.23 0.88  
Year to date precipitation 0.23 0.88  
Snow  
Snow 0.00 in - - ()
Month to date snowfall 0.0  
Since 1 July snowfall 0.0  
Snow Depth 0.00 in    
Sea Level Pressure  
Sea Level Pressure 30.23 in    
Wind  
Wind Speed 15 mph (NNE)    
Max Wind Speed 23 mph    
Max Gust Speed 28 mph    
Visibility 10 miles    
Events      
T = Trace of Precipitation, MM = Missing Value Source: NWS Daily Summary

Daily Weather History Graph

Daily Weather History Graph

Search for Another Location

Airport:

Trip Planner

Search our weather history database for the weather conditions in past years. The results will help you decide how hot, cold, wet, or windy it might be!

Date:

Astronomy

Jan. 08, 2015 Rise Set
Actual Time 7:10 AM EST 5:43 PM EST
Civil Twilight 6:45 AM EST 6:09 PM EST
Nautical Twilight 6:16 AM EST 6:37 PM EST
Astronomical Twilight 5:48 AM EST 7:06 PM EST
Moon 9:00 PM EST (1/8) 9:14 AM EST (1/8)
Length of Visible Light 11h 24m
Length of Day
10h 33m
Waning Gibbous, 89% of the Moon is Illuminated
Jan 8
Waning Gibbous
Jan 13
Last Quarter
Jan 20
New
Jan 26
First Quarter
Feb 3
Full

Hourly Weather History & Observations

Time (EST) Temp. Dew Point Humidity Pressure Visibility Wind Dir Wind Speed Gust Speed Precip Events Conditions
12:53 AM 61.0 °F 41.0 °F 48% 30.18 in 10.0 mi NNW 15.0 mph - N/A   Clear
1:53 AM 57.9 °F 42.1 °F 56% 30.18 in 10.0 mi NW 17.3 mph - N/A   Clear
2:53 AM 57.0 °F 44.1 °F 62% 30.19 in 10.0 mi NNW 11.5 mph - N/A   Scattered Clouds
3:53 AM 57.0 °F 45.0 °F 64% 30.20 in 10.0 mi NNW 12.7 mph - N/A   Partly Cloudy
4:53 AM 57.0 °F 46.0 °F 67% 30.21 in 10.0 mi NNW 17.3 mph - N/A   Scattered Clouds
5:53 AM 55.9 °F 48.0 °F 75% 30.23 in 10.0 mi NNW 10.4 mph - N/A   Scattered Clouds
6:53 AM 57.9 °F 48.0 °F 70% 30.25 in 10.0 mi NNW 11.5 mph - N/A   Scattered Clouds
7:53 AM 59.0 °F 48.9 °F 69% 30.27 in 10.0 mi NNW 11.5 mph - N/A   Scattered Clouds
8:53 AM 57.9 °F 48.0 °F 70% 30.28 in 10.0 mi NW 11.5 mph - N/A   Scattered Clouds
9:53 AM 63.0 °F 48.9 °F 60% 30.28 in 10.0 mi NNW 13.8 mph - N/A   Scattered Clouds
10:53 AM 68.0 °F 51.1 °F 55% 30.27 in 10.0 mi North 13.8 mph - N/A   Mostly Cloudy
11:53 AM 69.1 °F 50.0 °F 51% 30.24 in 10.0 mi NNE 15.0 mph 20.7 mph N/A   Mostly Cloudy
12:53 PM 71.1 °F 52.0 °F 51% 30.22 in 10.0 mi North 11.5 mph - N/A   Mostly Cloudy
1:53 PM 70.0 °F 55.0 °F 59% 30.20 in 10.0 mi ENE 15.0 mph 26.5 mph N/A   Mostly Cloudy
2:53 PM 68.0 °F 55.0 °F 63% 30.20 in 10.0 mi NE 20.7 mph 27.6 mph 0.00 in   Overcast
3:53 PM 68.0 °F 55.0 °F 63% 30.21 in 10.0 mi ENE 19.6 mph - N/A   Overcast
4:53 PM 68.0 °F 53.1 °F 59% 30.22 in 10.0 mi ENE 16.1 mph - N/A   Overcast
5:53 PM 68.0 °F 53.1 °F 59% 30.22 in 10.0 mi ENE 16.1 mph 24.2 mph N/A   Overcast
6:53 PM 69.1 °F 52.0 °F 54% 30.23 in 10.0 mi East 18.4 mph 23.0 mph N/A   Overcast
7:53 PM 69.1 °F 55.0 °F 61% 30.25 in 10.0 mi East 15.0 mph 24.2 mph N/A   Overcast
8:53 PM 68.0 °F 54.0 °F 61% 30.24 in 10.0 mi East 13.8 mph - N/A   Overcast
9:53 PM 69.1 °F 55.0 °F 61% 30.24 in 10.0 mi East 16.1 mph - N/A   Mostly Cloudy
10:53 PM 68.0 °F 54.0 °F 61% 30.22 in 10.0 mi East 16.1 mph 21.9 mph N/A   Mostly Cloudy
11:53 PM 69.1 °F 55.0 °F 61% 30.21 in 10.0 mi East 15.0 mph - N/A   Mostly Cloudy